Carbondale, IL

5:21 AM CST on December 11, 2019 (GMT -0600)
Southern Illinois

Weather History for KMDH - October, 2019

Change the Weather History Date:

Thursday, October 24, 2019

  Actual Average Record
Temperature  
Mean Temperature 52 °F -  
Max Temperature 57 °F 65 °F 86 °F (1940)
Min Temperature 46 °F 42 °F 18 °F (1981)
Degree Days  
Heating Degree Days 14    
Growing Degree Days 2 (Base 50)    
Moisture  
Dew Point 44 °F    
Average Humidity 77    
Maximum Humidity 89    
Minimum Humidity 57    
Precipitation  
Precipitation 0.00 in - - ()
Sea Level Pressure  
Sea Level Pressure 30.25 in    
Wind  
Wind Speed 7 mph (NNW)    
Max Wind Speed 12 mph    
Max Gust Speed 17 mph    
Visibility 10 miles    
Events Rain    
Averages and records for this station are not official NWS values.
T = Trace of Precipitation, MM = Missing Value Source: NWS Daily Summary

Daily Weather History Graph

Daily Weather History Graph

Search for Another Location

Airport or City:

Astronomy

Oct. 24, 2019 Rise Set
Actual Time 7:13 AM CDT 6:07 PM CDT
Civil Twilight 6:47 AM CDT 6:34 PM CDT
Nautical Twilight 6:16 AM CDT 7:05 PM CDT
Astronomical Twilight 5:46 AM CDT 7:35 PM CDT
Moon 2:50 AM CDT (10/24) 4:29 PM CDT (10/24)
Length of Visible Light 11h 47m
Length of Day
10h 53m
Waning Crescent, 16% of the Moon is Illuminated
Oct 24
Waning Crescent
Oct 27
New
Nov 4
First Quarter
Nov 12
Full
Nov 19
Last Quarter

Hourly Weather History & Observations

Time (CDT) Temp. Dew Point Humidity Pressure Visibility Wind Dir Wind Speed Gust Speed Precip Events Conditions
12:52 AM 55.9 °F 41.0 °F 57% 30.12 in 10.0 mi SSW 10.4 mph - N/A   Clear
1:52 AM 54.0 °F 42.1 °F 64% 30.13 in 10.0 mi South 9.2 mph - N/A   Mostly Cloudy
2:52 AM 55.0 °F 42.1 °F 62% 30.13 in 10.0 mi SSW 8.1 mph - N/A   Overcast
3:52 AM 53.1 °F 42.1 °F 66% 30.14 in 10.0 mi SSW 4.6 mph - N/A   Mostly Cloudy
4:52 AM 48.0 °F 42.1 °F 80% 30.15 in 10.0 mi SSE 5.8 mph - N/A   Mostly Cloudy
5:52 AM 46.9 °F 42.1 °F 83% 30.19 in 10.0 mi SSE 3.5 mph - N/A   Overcast
6:52 AM 48.9 °F 44.1 °F 83% 30.20 in 10.0 mi Calm Calm - N/A   Overcast
7:52 AM 51.1 °F 46.0 °F 83% 30.23 in 10.0 mi NW 3.5 mph - N/A   Overcast
8:52 AM 54.0 °F 45.0 °F 72% 30.25 in 10.0 mi North 10.4 mph - N/A   Overcast
9:52 AM 54.0 °F 45.0 °F 72% 30.27 in 10.0 mi North 6.9 mph - N/A   Overcast
10:52 AM 55.0 °F 45.0 °F 69% 30.28 in 10.0 mi NNW 8.1 mph - N/A   Overcast
11:52 AM 57.9 °F 45.0 °F 62% 30.27 in 10.0 mi North 8.1 mph - N/A   Overcast
12:52 PM 55.9 °F 45.0 °F 67% 30.27 in 10.0 mi North 9.2 mph - N/A   Overcast
1:52 PM 55.0 °F 45.0 °F 69% 30.27 in 10.0 mi NNW 10.4 mph - N/A   Overcast
2:49 PM 53.6 °F 44.6 °F 72% 30.27 in 10.0 mi NNW 8.1 mph 17.3 mph N/A   Overcast
2:52 PM 53.1 °F 45.0 °F 74% 30.27 in 10.0 mi NNW 11.5 mph 17.3 mph N/A   Overcast
3:52 PM 53.1 °F 45.0 °F 74% 30.28 in 10.0 mi North 10.4 mph - N/A   Overcast
4:52 PM 50.0 °F 44.1 °F 80% 30.28 in 10.0 mi Variable 4.6 mph - 0.00 in Rain Light Rain
5:52 PM 50.0 °F 45.0 °F 83% 30.29 in 10.0 mi North 4.6 mph - 0.00 in   Overcast
6:26 PM 48.9 °F 45.0 °F 86% 30.27 in 10.0 mi NE 5.8 mph - N/A   Overcast
6:52 PM 48.9 °F 45.0 °F 86% 30.27 in 10.0 mi North 6.9 mph - N/A   Overcast
7:15 PM 48.9 °F 45.0 °F 86% 30.28 in 10.0 mi North 6.9 mph - N/A   Overcast
7:52 PM 48.9 °F 45.0 °F 86% 30.31 in 10.0 mi NW 4.6 mph - N/A   Overcast
8:52 PM 48.9 °F 45.0 °F 86% 30.30 in 10.0 mi NNW 6.9 mph - N/A   Overcast
9:06 PM 48.0 °F 45.0 °F 89% 30.31 in 10.0 mi NNW 4.6 mph - N/A   Overcast
9:15 PM 48.0 °F 45.0 °F 89% 30.31 in 10.0 mi NNW 5.8 mph - N/A   Overcast
9:52 PM 48.0 °F 45.0 °F 89% 30.32 in 10.0 mi North 3.5 mph - N/A   Overcast
10:52 PM 48.0 °F 45.0 °F 89% 30.32 in 10.0 mi NNW 4.6 mph - N/A   Overcast
11:52 PM 48.0 °F 45.0 °F 89% 30.33 in 10.0 mi NNW 5.8 mph - N/A   Overcast